Regional Weather Roundup
Issued by NWS Charleston, SC

Current Version | Previous Version | Graphics & Text | Print | Product List | Glossary On
Versions: 1 2 3 4 5 6 7 8 9 10 11 12 13 14 15 16 17 18 19 20 21 22 23 24 25 26 27 28 29 30 31 32 33 34 35 36 37 38 39 40 41 42 43 44 45 46 47 48 49 50
555 ASUS42 KCHS 302228 RWRCHS REGIONAL WEATHER ROUNDUP NATIONAL WEATHER SERVICE CHARLESTON SC 600 PM EDT SAT JUL 30 2016 NOTE: "FAIR" INDICATES FEW OR NO CLOUDS BELOW 12,000 FEET WITH NO SIGNIFICANT WEATHER AND/OR OBSTRUCTIONS TO VISIBILITY. NOT ALL STATIONS ARE QUALITY CONTROLLED. USE DATA WITH CAUTION... ESPECIALLY DEWPOINT OBSERVATIONS. SCZ027-030-031-034>040-042>050-302300- ...SOUTHEAST SOUTH CAROLINA... CITY SKY/WX TMP DP RH WIND PRES REMARKS N CHARLESTON MOSUNNY 94 73 50 S16 29.95S HX 103 WATERFRONT PRK N/A 90 77 65 S13 29.94F HX 103 MOUNT PLEASANT FAIR 91 75 59 S13G20 29.96S HX 102 JOHNS ISLAND FAIR 91 75 59 S13 29.97R HX 102 PINOPOLIS N/A 95 70 43 S6 29.84F HX 101 MONCKS CORNER FAIR 93 66 40 S12 29.94S HX 96 SUMMERVILLE NOT AVBL BEAUFORT MCAS SUNNY 94 76 55 S8 29.95F HX 106 BEAUFORT ARPT FAIR 91 77 62 S10 29.96S HX 105 HILTON HEAD IS MOSUNNY 95 77 55 S12G21 29.98S HX 109 WALTERBORO PTCLDY 97 70 41 SE10G16 29.95S HX 103 ALLENDALE FAIR 95 70 43 SW5 29.94S HX 101 ...SOUTHERN MIDLANDS AND PEE DEE... CITY SKY/WX TMP DP RH WIND PRES REMARKS GEORGETOWN FAIR 90 72 55 S12 29.96S HX 96 KINGSTREE FAIR 95 66 38 S7 29.93R HX 98 ORANGEBURG CLOUDY 95 71 45 W12 29.94F HX 102 BARNWELL NOT AVBL AIKEN FAIR 91 66 43 SW9 29.99S HX 94 MANNING FAIR 93 70 46 SW3 29.93R HX 99 COLUMBIA PTSUNNY 94 70 45 SW10 29.93S HX 100 SUMTER CLOUDY 92 72 51 N7 29.92R HAZE HX 99 FLORENCE SUNNY 96 70 42 S8 29.93R HX 102 MYRTLE BEACH MOSUNNY 93 70 46 SW16 29.96S HX 99 N MYRTLE BEACH MOSUNNY 91 76 61 S14 29.95S HX 103 $$ GAZ063-065-086>088-099>101-113>116-118-119-134>141-150-302300- ...SOUTHEAST GEORGIA... CITY SKY/WX TMP DP RH WIND PRES REMARKS SAVANNAH ARPT MOSUNNY 95 72 47 S15 29.95F HX 103 HUNTER AAF SUNNY 92 77 61 S10 29.94F HX 106 FORT STEWART MOSUNNY 96 74 49 SE12 29.92F HX 107 STATESBORO RAIN 85 75 74 SW14 29.98R HX 93 SYLVANIA NOT AVBL CLAXTON MOCLDY 96 69 40 CALM 29.94S HX 102 ...CSRA...CENTRAL AND FAR SOUTHEAST GEORGIA... CITY SKY/WX TMP DP RH WIND PRES REMARKS THOMSON NOT AVBL AUGUSTA-BUSH SUNNY 94 72 48 CALM 29.93F HX 102 AUGUSTA-DANIEL SUNNY 92 74 55 VRB3 29.96F HX 101 SWAINSBORO FAIR 93 66 40 W10G16 29.98R HX 96 VIDALIA PTSUNNY 95 68 41 SW9 29.97R HX 99 EASTMAN FAIR 92 58 31 NW5 30.01R HX 90 HAZLEHURST FAIR 98 71 42 CALM 29.95F HX 105 ALMA SUNNY 98 67 36 S8 29.95F HX 102 WAYCROSS SUNNY 101 72 38 S5 29.95F HX 110 JESUP FAIR 99 73 44 S9 29.95F HX 109 BAXLEY FAIR 99 72 41 SW8 29.95S HX 107 BRUNSWICK MOSUNNY 90 77 66 S10 29.99S HX 102 SAINT SIMONS MOSUNNY 89 75 63 S10 29.99R HX 99 $$ SCZ027-028-034-036>038-045-046-048>050-GAZ119-141-302300- ...LAKE AND SUPPLEMENTAL COASTAL OBSERVATIONS... STATION/POSITION TIME TEMP WIND PRES WAVE SWELL AIR SEA DIR/SP/G HT/PER HT/PER/DIR (UTC) (F) (DEG/KT/KT) (MB) (FT/S) (FT/S/D) WINYAH BAY 2100 92 200/ 12 1014.0 LAKE MURRAY 2100 90 270/ 5/ 7 1013.2F ACE BASIN NERRS 2100 92 160/ 2 1014.0F FORT PULASKI 2200 89 88 N/A SAPELO ISLAND 2200 92 160/ 13 1015.0S $$ ANZ835-935-AMZ111-154-330-350-352-354-370-450-454-472-302300- ...C-MAN AND BUOY OBSERVATIONS... STATION/POSITION TIME TEMP WIND PRES WAVE SWELL AIR SEA DIR/SP/G HT/PER HT/PER/DIR (UTC) (F) (DEG/KT/KT) (MB) (FT/S) (FT/S/D) BUOY 41004 2150 86 87 210/ 14/ 16 1014.5S 2/ 5 2/140/ 8 BUOY 41008 2150 87 87 150/ 16/ 17 1014.9F 2/ 3 2/100/ 8 FOLLY BEACH CMAN 2200 87 190/ 15/ 16 1015.0F CAPERS NEARSHORE 2208 87 86 210/ 16/ 21 1014.4R FRIPP NEARSHORE 2208 87 88 190/ 16/ 19 1014.1F STATION/POSITION TIME TEMP WIND PRES WAVE SWELL AIR SEA DIR/SP/G HT/PER HT/PER/DIR (UTC) (F) (DEG/KT/KT) (MB) (FT/S) (FT/S/D) 5E ST. MARYS GA 2201 86 N/A 2/ 3 FRYING PAN BUOY 2200 86 86 200/ 14/ 16 1014.5R BUOY 41025 2150 84 85 180/ 16/ 19 1014.7F 3/ 6 2/220/ 6 CAPE LOOKOUT NC 2200 85 180/ 15/ 16 1013.9F BUOY 41002 2150 85 86 180/ 8/ 10 1017.0F 2/ 6 2/250/ 6 BUOY 41010 2120 86 90 130/ 4/ 6 1017.2F ST AUGUSTINE FL 2200 84 86 140/ 8/ 9 1016.9F $$

USA.gov is the U.S. government's official web portal to all federal, state and local government web resources and services.